Weather History for Palma De Mallorca / Son San Juan, Spain

Change the Weather History Date:

Wednesday, February 6, 2013

  Actual Average Record
Temperature  
Mean Temperature 51 °F -  
Max Temperature 56 °F 58 °F - ()
Min Temperature 46 °F 39 °F - ()
Degree Days  
Heating Degree Days 14    
Growing Degree Days 1 (Base 50)    
Moisture  
Dew Point 39 °F    
Average Humidity 59    
Maximum Humidity 94    
Minimum Humidity 27    
Precipitation  
Precipitation 0.00 in 0.05 in - ()
Sea Level Pressure  
Sea Level Pressure 29.85 in    
Wind  
Wind Speed 13 mph ()    
Max Wind Speed 29 mph    
Max Gust Speed 43 mph    
Visibility 6.6 miles    
Events      
T = Trace of Precipitation, MM = Missing Value Source: Averaged Metar Reports

Daily Weather History Graph

Daily Weather History Graph

Search for Another Location

Airport:

Trip Planner

Search our weather history database for the weather conditions in past years. The results will help you decide how hot, cold, wet, or windy it might be!

Date:

Astronomy

Feb. 06, 2013 Rise Set
Actual Time 7:51 AM CET 6:15 PM CET
Civil Twilight 7:23 AM CET 6:43 PM CET
Nautical Twilight 6:51 AM CET 7:15 PM CET
Astronomical Twilight 6:20 AM CET 7:46 PM CET
Moon 4:19 AM CET (2/6) 2:17 PM CET (2/6)
Length of Visible Light 11h 19m
Length of Day
10h 23m
Waning Crescent, 19% of the Moon is Illuminated
Feb 6
Waning Crescent
Feb 10
New
Feb 17
First Quarter
Feb 25
Full
Mar 4
Last Quarter

Hourly Weather History & Observations

Time (CET) Temp. Dew Point Humidity Pressure Visibility Wind Dir Wind Speed Gust Speed Precip Events Conditions
12:00 AM 53.6 °F 51.8 °F 94% 29.95 in - WSW 9.2 mph - N/A   Clear
12:30 AM 53.6 °F 51.8 °F 94% 29.95 in - Variable 1.2 mph - N/A   Clear
1:00 AM 51 °F 48 °F 85% 29.94 in 10 mi Calm Calm - -   Clear
1:00 AM 51.8 °F 50.0 °F 94% 29.92 in - Calm Calm - N/A   Clear
1:30 AM 50.0 °F 48.2 °F 94% 29.92 in - SE 2.3 mph - N/A   Clear
2:00 AM 50.0 °F 48.2 °F 94% 29.89 in - SSE 5.8 mph - N/A   Clear
3:00 AM 48.2 °F 44.6 °F 87% 29.86 in 6.2 mi Calm Calm - N/A   Partly Cloudy
3:30 AM 55.4 °F 48.2 °F 77% 29.86 in 6.2 mi North 5.8 mph - N/A   Partly Cloudy
4:00 AM 53.6 °F 44.6 °F 72% 29.86 in 6.2 mi NNW 20.7 mph - N/A   Partly Cloudy
4:30 AM 51.8 °F 42.8 °F 71% 29.86 in 6.2 mi North 8.1 mph - N/A   Partly Cloudy
5:00 AM 53.6 °F 41.0 °F 62% 29.83 in 6.2 mi NNW 13.8 mph - N/A   Partly Cloudy
5:30 AM 53.6 °F 41.0 °F 62% 29.83 in 6.2 mi North 12.7 mph - N/A   Partly Cloudy
6:00 AM 53.6 °F 39.2 °F 58% 29.83 in 6.2 mi NNW 19.6 mph - N/A   Partly Cloudy
6:30 AM 53.6 °F 35.6 °F 51% 29.83 in 6.2 mi NNW 23.0 mph 34.5 mph N/A   Partly Cloudy
7:00 AM 51 °F 34 °F 39% 29.86 in 16 mi NNW 17.3 mph - -   Scattered Clouds
7:00 AM 51.8 °F 37.4 °F 58% 29.86 in 6.2 mi NNW 19.6 mph 32.2 mph N/A   Partly Cloudy
7:30 AM 51.8 °F 35.6 °F 54% 29.86 in 6.2 mi NW 21.9 mph - N/A   Partly Cloudy
8:00 AM 50.0 °F 37.4 °F 62% 29.86 in 6.2 mi NW 19.6 mph 31.1 mph N/A   Partly Cloudy
8:30 AM 50.0 °F 37.4 °F 62% 29.86 in 6.2 mi NW 13.8 mph - N/A   Partly Cloudy
9:30 AM 51.8 °F 41.0 °F 67% 29.89 in 6.2 mi NNW 11.5 mph - N/A   Scattered Clouds
10:00 AM 53.6 °F 41.0 °F 62% 29.89 in 6.2 mi NW 16.1 mph - N/A   Scattered Clouds
10:30 AM 53.6 °F 39.2 °F 58% 29.89 in 6.2 mi NW 21.9 mph - N/A   Scattered Clouds
11:00 AM 53.6 °F 41.0 °F 62% 29.89 in 6.2 mi NW 18.4 mph - N/A   Scattered Clouds
11:30 AM 53.6 °F 41.0 °F 62% 29.89 in 6.2 mi NW 20.7 mph - N/A   Scattered Clouds
12:00 PM 55.4 °F 41.0 °F 58% 29.89 in 6.2 mi NNW 23.0 mph - N/A   Scattered Clouds
12:30 PM 55.4 °F 41.0 °F 58% 29.89 in 6.2 mi NNW 21.9 mph - N/A   Scattered Clouds
1:00 PM 55.4 °F 39.2 °F 54% 29.86 in 6.2 mi NNW 24.2 mph - N/A   Scattered Clouds
1:30 PM 55.4 °F 39.2 °F 54% 29.86 in 6.2 mi NW 19.6 mph - N/A   Scattered Clouds
2:00 PM 55.4 °F 37.4 °F 51% 29.83 in 6.2 mi NW 27.6 mph - N/A   Scattered Clouds
2:30 PM 55.4 °F 37.4 °F 51% 29.83 in 6.2 mi NW 21.9 mph 34.5 mph N/A   Scattered Clouds
3:00 PM 55.4 °F 35.6 °F 47% 29.83 in 6.2 mi NW 20.7 mph 36.8 mph N/A   Scattered Clouds
3:30 PM 57.2 °F 37.4 °F 48% 29.80 in 6.2 mi WNW 20.7 mph 32.2 mph N/A   Scattered Clouds
4:00 PM 57.2 °F 35.6 °F 44% 29.80 in 6.2 mi WNW 20.7 mph 32.2 mph N/A   Scattered Clouds
4:30 PM 57.2 °F 35.6 °F 44% 29.80 in 6.2 mi WNW 15.0 mph 26.5 mph N/A   Scattered Clouds
5:00 PM 55.4 °F 33.8 °F 44% 29.80 in 6.2 mi WNW 13.8 mph - N/A   Scattered Clouds
5:30 PM 55.4 °F 35.6 °F 47% 29.80 in 6.2 mi WNW 12.7 mph - N/A   Scattered Clouds
6:30 PM 55.4 °F 35.6 °F 47% 29.80 in 6.2 mi WNW 17.3 mph - N/A   Scattered Clouds
7:00 PM 54 °F 30 °F 27% 29.80 in 9 mi WNW 24.2 mph - -   Scattered Clouds
7:00 PM 55.4 °F 33.8 °F 44% 29.77 in 6.2 mi WNW 21.9 mph 35.7 mph N/A   Scattered Clouds
7:30 PM 55.4 °F 32.0 °F 41% 29.77 in 6.2 mi NW 28.8 mph 41.4 mph N/A   Scattered Clouds
8:00 PM 55.4 °F 35.6 °F 47% 29.77 in 6.2 mi NW 21.9 mph 33.4 mph N/A   Scattered Clouds
8:30 PM 55.4 °F 33.8 °F 44% 29.80 in 6.2 mi NW 28.8 mph 42.6 mph N/A   Partly Cloudy
9:00 PM 53.6 °F 35.6 °F 51% 29.80 in 6.2 mi NW 25.3 mph 40.3 mph N/A   Scattered Clouds
9:30 PM 53.6 °F 33.8 °F 47% 29.80 in 6.2 mi NW 21.9 mph 33.4 mph N/A   Partly Cloudy
10:00 PM 53.6 °F 35.6 °F 51% 29.80 in 6.2 mi NW 27.6 mph 39.1 mph N/A   Partly Cloudy
10:30 PM 51.8 °F 35.6 °F 54% 29.80 in 6.2 mi NW 21.9 mph 33.4 mph N/A   Partly Cloudy
11:00 PM 51.8 °F 37.4 °F 58% 29.80 in 6.2 mi NW 20.7 mph 36.8 mph N/A   Partly Cloudy
11:30 PM 51.8 °F 37.4 °F 58% 29.80 in 6.2 mi NW 25.3 mph 36.8 mph N/A   Partly Cloudy